Home > Weather > 's-Hertogenbosch > Past weeks

Flag for Netherlands Past Weather in 's-Hertogenbosch, Netherlands — Yesterday and Last 2 Weeks

Now
72 °F

Mostly cloudy.


Feels Like: 75 °F
Forecast: 59 / 67 °F
Wind: 13 mph from West

Location: Volkel

Current Time: Jul 29, 2016 at 4:07:55 PM

Latest Report: Jul 29, 2016 at 3:25 PM


Visibility: N/A

Pressure: 29.86 "Hg

Humidity: 65%

Dew Point: 59 °F

Location of 's-HertogenboschLocation

Past Weather in 's-Hertogenbosch — Graph

°F

's-Hertogenbosch Temperature Yesterday

Maximum temperature yesterday: 75 °F (at 4:55 PM)
Minimum temperature yesterday: 63 °F (at 3:25 AM)
Average temperature yesterday: 66 °F

High & Low Weather Summary for the Past Weeks

 TemperatureHumidityPressure
High95 °F (Jul 20, 4:55 PM)100% (Jul 17, 10:55 PM)30.27 "Hg (Jul 17, 10:55 PM)
Low50 °F (Jul 15, 2:25 AM)30% (Jul 20, 4:55 PM)29.83 "Hg (Jul 20, 2:58 PM)
Average68 °F77%30.07 "Hg
* Reported Jul 14 2:04 PM — Jul 29 2:55 PM, 's-Hertogenbosch, Weather by CustomWeather, © 2016

Note: Actual official high and low records may vary slightly from our data, if they occured in-between our weather recording intervals... More about our weather records

Advertising

's-Hertogenbosch Weather History for the Previous 24 Hours

Scroll right to see more
 ConditionsComfort  
Time TempWeatherWind HumidityBarometerVisibility
2:55 PM
Fri, Jul 29
70 °FMostly cloudy.12 mph73%29.86 "HgN/A
2:25 PM72 °FMore clouds than sun.12 mph65%29.86 "HgN/A
1:55 PM72 °FBroken clouds.8 mph69%29.86 "HgN/A
1:25 PM72 °FBroken clouds.9 mph73%29.86 "HgN/A
12:55 PM70 °FPartly sunny.15 mph78%29.86 "HgN/A
12:25 PM70 °FPartly sunny.10 mph73%29.86 "HgN/A
12:03 PM70 °FBroken clouds.13 mph78%29.86 "HgN/A
11:55 AM70 °FBroken clouds.6 mph83%29.86 "HgN/A
11:25 AM68 °FBroken clouds.9 mph88%29.86 "HgN/A
10:55 AM66 °FBroken clouds.10 mph88%29.86 "HgN/A
10:25 AM64 °FPartly sunny.6 mph94%29.86 "HgN/A
10:04 AM63 °FRain showers. Broken clouds.6 mph100%29.89 "Hg3 mi
9:55 AM64 °FRain showers. Broken clouds.9 mph94%29.89 "Hg3 mi
9:25 AM64 °FDrizzle. Broken clouds.9 mph94%29.86 "HgN/A
8:55 AM64 °FCloudy.7 mph94%29.86 "HgN/A
8:25 AM63 °FMostly cloudy.6 mph94%29.89 "HgN/A
7:55 AM63 °FMostly cloudy.5 mph94%29.89 "HgN/A
7:25 AM63 °FFog.7 mph94%29.89 "Hg6 mi
7:04 AM63 °FFog.6 mph94%29.89 "Hg5 mi
6:55 AM61 °FFog.6 mph100%29.89 "Hg5 mi
6:25 AM61 °FFog.6 mph100%29.89 "Hg6 mi
5:55 AM61 °FOvercast.7 mph100%29.89 "HgN/A
5:25 AM61 °FPassing clouds.6 mph100%29.89 "HgN/A
4:55 AM61 °FFog.7 mph94%29.89 "Hg6 mi
4:25 AM61 °FOvercast.8 mph94%29.89 "HgN/A
3:55 AM61 °FMostly cloudy.9 mph94%29.89 "HgN/A
3:25 AM61 °FPartly cloudy.9 mph94%29.92 "HgN/A
2:55 AM61 °FMostly cloudy.9 mph94%29.92 "HgN/A
2:25 AM61 °FPartly cloudy.9 mph94%29.92 "HgN/A
1:55 AM63 °FPartly cloudy.8 mph94%29.92 "HgN/A
1:25 AM63 °FFog.5 mph94%29.92 "Hg5 mi
12:55 AM61 °FDrizzle. Mostly cloudy.3 mph100%29.92 "Hg4 mi
12:25 AM63 °FRain showers. Partly cloudy.2 mph88%29.92 "HgN/A
11:55 PM
Thu, Jul 28
64 °FPartly cloudy.5 mph83%29.92 "HgN/A
11:25 PM64 °FPassing clouds.3 mph83%29.92 "HgN/A
10:55 PM64 °FMostly cloudy.3 mph83%29.92 "HgN/A
10:25 PM64 °FBroken clouds.3 mph83%29.92 "HgN/A
9:55 PM66 °FOvercast.5 mph78%29.92 "HgN/A
9:25 PM68 °FBroken clouds.6 mph73%29.92 "HgN/A
8:55 PM68 °FBroken clouds.6 mph73%29.92 "HgN/A
8:25 PM70 °FPartly sunny.6 mph73%29.92 "HgN/A
7:55 PM70 °FBroken clouds.6 mph73%29.92 "HgN/A
7:25 PM72 °FBroken clouds.3 mph69%29.89 "HgN/A
6:55 PM72 °FBroken clouds.5 mph69%29.89 "HgN/A
6:25 PM73 °FScattered clouds.8 mph65%29.89 "HgN/A
5:55 PM72 °FBroken clouds.8 mph65%29.92 "HgN/A
5:25 PM73 °FPartly sunny.8 mph65%29.92 "HgN/A
4:55 PM75 °FMore clouds than sun.10 mph61%29.92 "HgN/A
4:25 PM73 °FBroken clouds.10 mph69%29.92 "HgN/A
Weather by CustomWeather, © 2016

See weather overviewHow to use our weather pages